Time,TemperatureF,DewpointF,PressureIn,WindDirection,WindDirectionDegrees,WindSpeedMPH,WindSpeedGustMPH,Humidity,HourlyPrecipIn,Conditions,Clouds,dailyrainin,SoftwareType,DateUTC
2013-05-01 00:05:00,69.9,59.7,29.97,South,186,6.0,14.0,70,0.00,,---,0.00,VWS V14.01,2013-05-01 05:05:00,
2013-05-01 00:12:00,69.7,59.9,29.97,SE,142,10.0,14.0,71,0.00,,---,0.00,VWS V14.01,2013-05-01 05:12:00,
2013-05-01 00:20:00,69.4,59.6,29.98,SSE,165,6.0,12.0,71,0.00,,---,0.00,VWS V14.01,2013-05-01 05:20:00,
2013-05-01 00:27:00,69.2,59.4,29.98,South,180,5.0,12.0,71,0.00,,---,0.00,VWS V14.01,2013-05-01 05:27:00,
2013-05-01 00:35:00,69.0,59.6,29.98,South,191,2.0,11.0,72,0.00,,---,0.00,VWS V14.01,2013-05-01 05:35:00,
2013-05-01 00:42:00,68.8,59.4,29.98,South,175,4.0,13.0,72,0.00,,---,0.00,VWS V14.01,2013-05-01 05:42:00,
2013-05-01 00:50:00,68.6,59.2,29.98,SSE,161,4.0,10.0,72,0.00,,---,0.00,VWS V14.01,2013-05-01 05:50:00,
2013-05-01 00:57:00,68.4,59.4,29.98,SSE,157,10.0,11.0,73,0.00,,---,0.00,VWS V14.01,2013-05-01 05:57:00,
2013-05-01 01:05:00,68.3,59.3,29.98,South,185,5.0,10.0,73,0.00,,---,0.00,VWS V14.01,2013-05-01 06:05:00,
2013-05-01 01:12:00,68.1,59.1,29.98,South,190,5.0,10.0,73,0.00,,---,0.00,VWS V14.01,2013-05-01 06:12:00,
2013-05-01 01:20:00,68.0,59.0,29.98,SSW,209,3.0,11.0,73,0.00,,---,0.00,VWS V14.01,2013-05-01 06:20:00,
2013-05-01 01:27:00,67.8,59.2,29.98,South,183,2.0,11.0,74,0.00,,---,0.00,VWS V14.01,2013-05-01 06:27:00,
2013-05-01 01:35:00,67.7,59.1,29.98,South,187,3.0,9.0,74,0.00,,---,0.00,VWS V14.01,2013-05-01 06:35:00,
2013-05-01 01:42:00,67.7,59.1,29.98,SSE,155,0.0,9.0,74,0.00,,---,0.00,VWS V14.01,2013-05-01 06:42:00,
2013-05-01 01:50:00,67.5,58.9,29.99,South,182,1.0,8.0,74,0.00,,---,0.00,VWS V14.01,2013-05-01 06:50:00,
2013-05-01 01:57:00,67.4,58.8,29.99,SSW,198,3.0,8.0,74,0.00,,---,0.00,VWS V14.01,2013-05-01 06:57:00,
2013-05-01 02:05:00,67.1,58.9,29.99,South,181,1.0,7.0,75,0.00,,---,0.00,VWS V14.01,2013-05-01 07:05:00,
2013-05-01 02:12:00,66.9,58.7,29.99,South,188,1.0,7.0,75,0.00,,---,0.00,VWS V14.01,2013-05-01 07:12:00,
2013-05-01 02:20:00,66.6,58.8,29.99,SSW,192,2.0,7.0,76,0.00,,---,0.00,VWS V14.01,2013-05-01 07:20:00,
2013-05-01 02:27:00,66.3,58.5,29.99,South,190,0.0,7.0,76,0.00,,---,0.00,VWS V14.01,2013-05-01 07:27:00,
2013-05-01 02:35:00,66.0,58.6,29.99,SSW,200,2.0,8.0,77,0.00,,---,0.00,VWS V14.01,2013-05-01 07:35:00,
2013-05-01 02:42:00,65.8,58.4,29.99,South,172,1.0,8.0,77,0.00,,---,0.00,VWS V14.01,2013-05-01 07:42:00,
2013-05-01 02:50:00,65.7,58.3,29.99,South,176,0.0,6.0,77,0.00,,---,0.00,VWS V14.01,2013-05-01 07:50:00,
2013-05-01 02:57:00,65.6,58.6,29.99,South,181,2.0,7.0,78,0.00,,---,0.00,VWS V14.01,2013-05-01 07:57:00,
2013-05-01 03:05:00,65.4,58.4,30.00,SSW,197,3.0,7.0,78,0.00,,---,0.00,VWS V14.01,2013-05-01 08:05:00,
2013-05-01 03:12:00,65.3,58.3,29.99,South,188,1.0,7.0,78,0.00,,---,0.00,VWS V14.01,2013-05-01 08:12:00,
2013-05-01 03:20:00,65.3,58.3,30.00,South,190,6.0,8.0,78,0.00,,---,0.00,VWS V14.01,2013-05-01 08:20:00,
2013-05-01 03:27:00,65.3,58.3,30.00,South,184,5.0,9.0,78,0.00,,---,0.00,VWS V14.01,2013-05-01 08:27:00,
2013-05-01 03:35:00,65.2,58.2,30.01,SSE,167,2.0,6.0,78,0.00,,---,0.00,VWS V14.01,2013-05-01 08:35:00,
2013-05-01 03:42:00,65.0,58.0,30.01,SW,225,2.0,6.0,78,0.00,,---,0.00,VWS V14.01,2013-05-01 08:42:00,
2013-05-01 03:50:00,64.9,57.9,30.01,SSW,193,5.0,7.0,78,0.00,,---,0.00,VWS V14.01,2013-05-01 08:50:00,
2013-05-01 03:57:00,64.8,57.8,30.02,SW,221,0.0,7.0,78,0.00,,---,0.00,VWS V14.01,2013-05-01 08:57:00,
2013-05-01 04:05:00,64.6,58.0,30.02,SW,228,3.0,6.0,79,0.00,,---,0.00,VWS V14.01,2013-05-01 09:05:00,
2013-05-01 04:12:00,64.4,57.8,30.02,SSW,201,3.0,7.0,79,0.00,,---,0.00,VWS V14.01,2013-05-01 09:12:00,
2013-05-01 04:20:00,64.3,57.7,30.02,SSW,209,1.0,7.0,79,0.00,,---,0.00,VWS V14.01,2013-05-01 09:20:00,
2013-05-01 04:27:00,64.1,57.5,30.03,SSW,205,3.0,7.0,79,0.00,,---,0.00,VWS V14.01,2013-05-01 09:27:00,
2013-05-01 04:36:00,64.1,57.8,30.03,South,184,4.0,8.0,80,0.00,,---,0.00,VWS V14.01,2013-05-01 09:36:00,
2013-05-01 04:42:00,64.1,57.8,30.03,SSW,192,3.0,8.0,80,0.00,,---,0.00,VWS V14.01,2013-05-01 09:42:00,
2013-05-01 04:51:00,64.0,57.7,30.03,South,183,3.0,8.0,80,0.00,,---,0.00,VWS V14.01,2013-05-01 09:51:00,
2013-05-01 04:57:00,64.0,57.7,30.03,SSW,193,4.0,8.0,80,0.00,,---,0.00,VWS V14.01,2013-05-01 09:57:00,
2013-05-01 05:06:00,64.0,57.7,30.03,SSW,202,3.0,5.0,80,0.00,,---,0.00,VWS V14.01,2013-05-01 10:06:00,
2013-05-01 05:12:00,63.9,57.6,30.03,SSW,193,2.0,6.0,80,0.00,,---,0.00,VWS V14.01,2013-05-01 10:12:00,
2013-05-01 05:21:00,64.0,57.4,30.03,SSW,194,1.0,7.0,79,0.00,,---,0.00,VWS V14.01,2013-05-01 10:21:00,
2013-05-01 05:27:00,64.0,57.4,30.03,SSE,159,0.0,7.0,79,0.00,,---,0.00,VWS V14.01,2013-05-01 10:27:00,
2013-05-01 05:36:00,64.1,57.1,30.04,South,182,4.0,7.0,78,0.00,,---,0.00,VWS V14.01,2013-05-01 10:36:00,
2013-05-01 05:42:00,64.0,57.0,30.04,SSE,165,7.0,10.0,78,0.00,,---,0.00,VWS V14.01,2013-05-01 10:42:00,
2013-05-01 05:51:00,63.9,56.6,30.04,SSE,157,5.0,10.0,77,0.00,,---,0.00,VWS V14.01,2013-05-01 10:51:00,
2013-05-01 05:57:00,63.9,56.6,30.04,South,176,5.0,10.0,77,0.00,,---,0.00,VWS V14.01,2013-05-01 10:57:00,
2013-05-01 06:06:00,63.9,56.6,30.04,South,182,4.0,8.0,77,0.00,,---,0.00,VWS V14.01,2013-05-01 11:06:00,
2013-05-01 06:12:00,63.9,56.6,30.05,South,171,5.0,8.0,77,0.00,,---,0.00,VWS V14.01,2013-05-01 11:12:00,
2013-05-01 06:21:00,64.0,56.7,30.05,South,178,2.0,8.0,77,0.00,,---,0.00,VWS V14.01,2013-05-01 11:21:00,
2013-05-01 06:27:00,64.0,56.7,30.05,South,185,4.0,8.0,77,0.00,,---,0.00,VWS V14.01,2013-05-01 11:27:00,
2013-05-01 06:36:00,64.5,56.8,30.05,SSE,158,4.0,8.0,76,0.00,,---,0.00,VWS V14.01,2013-05-01 11:36:00,
2013-05-01 06:42:00,65.0,56.5,30.06,South,174,0.0,8.0,74,0.00,,---,0.00,VWS V14.01,2013-05-01 11:42:00,
2013-05-01 06:51:00,65.7,56.8,30.05,SSE,158,5.0,7.0,73,0.00,,---,0.00,VWS V14.01,2013-05-01 11:51:00,
2013-05-01 06:57:00,66.4,56.7,30.06,SSE,153,7.0,7.0,71,0.00,,---,0.00,VWS V14.01,2013-05-01 11:57:00,
2013-05-01 07:06:00,67.2,57.1,30.06,South,169,2.0,6.0,70,0.00,,---,0.00,VWS V14.01,2013-05-01 12:06:00,
2013-05-01 07:12:00,67.8,56.9,30.06,South,184,3.0,6.0,68,0.00,,---,0.00,VWS V14.01,2013-05-01 12:12:00,
2013-05-01 07:21:00,68.6,57.2,30.07,SSW,193,1.0,7.0,67,0.00,,---,0.00,VWS V14.01,2013-05-01 12:21:00,
2013-05-01 07:27:00,69.2,57.4,30.07,South,174,6.0,7.0,66,0.00,,---,0.00,VWS V14.01,2013-05-01 12:27:00,
2013-05-01 07:36:00,69.6,57.3,30.07,South,190,4.0,8.0,65,0.00,,---,0.00,VWS V14.01,2013-05-01 12:36:00,
2013-05-01 07:42:00,69.9,57.2,30.07,South,172,7.0,9.0,64,0.00,,---,0.00,VWS V14.01,2013-05-01 12:42:00,
2013-05-01 07:51:00,70.3,57.6,30.07,South,169,2.0,8.0,64,0.00,,---,0.00,VWS V14.01,2013-05-01 12:51:00,
2013-05-01 07:57:00,70.6,57.4,30.08,South,171,6.0,8.0,63,0.00,,---,0.00,VWS V14.01,2013-05-01 12:57:00,
2013-05-01 08:06:00,70.7,57.5,30.08,South,190,2.0,10.0,63,0.00,,---,0.00,VWS V14.01,2013-05-01 13:06:00,
2013-05-01 08:12:00,71.0,57.8,30.08,ESE,117,4.0,10.0,63,0.00,,---,0.00,VWS V14.01,2013-05-01 13:12:00,
2013-05-01 08:21:00,71.4,57.7,30.08,SE,144,4.0,11.0,62,0.00,,---,0.00,VWS V14.01,2013-05-01 13:21:00,
2013-05-01 08:27:00,71.6,57.9,30.08,South,172,9.0,11.0,62,0.00,,---,0.00,VWS V14.01,2013-05-01 13:27:00,
2013-05-01 08:36:00,71.9,57.7,30.09,SSE,163,2.0,9.0,61,0.00,,---,0.00,VWS V14.01,2013-05-01 13:36:00,
2013-05-01 08:42:00,72.2,58.0,30.09,SSE,147,5.0,9.0,61,0.00,,---,0.00,VWS V14.01,2013-05-01 13:42:00,
2013-05-01 08:51:00,72.5,58.3,30.09,South,185,3.0,9.0,61,0.00,,---,0.00,VWS V14.01,2013-05-01 13:51:00,
2013-05-01 08:57:00,72.8,58.1,30.09,SSW,195,2.0,10.0,60,0.00,,---,0.00,VWS V14.01,2013-05-01 13:57:00,
2013-05-01 09:06:00,73.1,58.4,30.08,South,186,3.0,9.0,60,0.00,,---,0.00,VWS V14.01,2013-05-01 14:06:00,
2013-05-01 09:12:00,73.6,58.4,30.08,South,183,6.0,9.0,59,0.00,,---,0.00,VWS V14.01,2013-05-01 14:12:00,
2013-05-01 09:21:00,74.0,59.2,30.09,SE,130,2.0,11.0,60,0.00,,---,0.00,VWS V14.01,2013-05-01 14:21:00,
2013-05-01 09:27:00,74.3,59.1,30.09,South,180,5.0,11.0,59,0.00,,---,0.00,VWS V14.01,2013-05-01 14:27:00,
2013-05-01 09:36:00,74.6,59.8,30.09,SE,142,1.0,9.0,60,0.00,,---,0.00,VWS V14.01,2013-05-01 14:36:00,
2013-05-01 09:42:00,75.1,59.8,30.09,SSW,206,0.0,9.0,59,0.00,,---,0.00,VWS V14.01,2013-05-01 14:42:00,
2013-05-01 09:51:00,75.9,59.6,30.10,South,188,4.0,7.0,57,0.00,,---,0.00,VWS V14.01,2013-05-01 14:51:00,
2013-05-01 09:57:00,76.4,59.6,30.09,SSE,165,0.0,7.0,56,0.00,,---,0.00,VWS V14.01,2013-05-01 14:57:00,
2013-05-01 10:06:00,77.0,59.1,30.10,SSW,194,4.0,7.0,54,0.00,,---,0.00,VWS V14.01,2013-05-01 15:06:00,
2013-05-01 10:12:00,77.2,59.3,30.10,South,175,2.0,8.0,54,0.00,,---,0.00,VWS V14.01,2013-05-01 15:12:00,
2013-05-01 10:21:00,78.0,59.5,30.10,South,186,3.0,6.0,53,0.00,,---,0.00,VWS V14.01,2013-05-01 15:21:00,
2013-05-01 10:27:00,78.2,59.7,30.10,SW,214,0.0,6.0,53,0.00,,---,0.00,VWS V14.01,2013-05-01 15:27:00,
2013-05-01 10:36:00,78.7,60.2,30.10,SSW,198,4.0,8.0,53,0.00,,---,0.00,VWS V14.01,2013-05-01 15:36:00,
2013-05-01 10:42:00,79.3,60.2,30.10,SSW,196,4.0,8.0,52,0.00,,---,0.00,VWS V14.01,2013-05-01 15:42:00,
2013-05-01 10:51:00,79.6,59.9,30.10,SSE,148,5.0,8.0,51,0.00,,---,0.00,VWS V14.01,2013-05-01 15:51:00,
2013-05-01 10:57:00,79.8,59.5,30.10,SE,139,0.0,8.0,50,0.00,,---,0.00,VWS V14.01,2013-05-01 15:57:00,
2013-05-01 11:06:00,80.2,59.9,30.10,SSE,167,5.0,8.0,50,0.00,,---,0.00,VWS V14.01,2013-05-01 16:06:00,
2013-05-01 11:12:00,80.3,56.4,30.10,SSW,197,3.0,8.0,44,0.00,,---,0.00,VWS V14.01,2013-05-01 16:12:00,
2013-05-01 11:21:00,80.5,57.8,30.10,SSW,198,4.0,7.0,46,0.00,,---,0.00,VWS V14.01,2013-05-01 16:21:00,
2013-05-01 11:27:00,80.8,59.3,30.10,SE,143,6.0,8.0,48,0.00,,---,0.00,VWS V14.01,2013-05-01 16:27:00,
2013-05-01 11:36:00,80.9,58.2,30.10,South,169,5.0,10.0,46,0.00,,---,0.00,VWS V14.01,2013-05-01 16:36:00,
2013-05-01 11:42:00,80.7,56.8,30.10,SSW,198,7.0,15.0,44,0.00,,---,0.00,VWS V14.01,2013-05-01 16:42:00,
2013-05-01 11:51:00,80.5,57.2,30.10,SW,236,7.0,11.0,45,0.00,,---,0.00,VWS V14.01,2013-05-01 16:51:00,
2013-05-01 11:57:00,80.4,56.5,30.09,SW,215,4.0,11.0,44,0.00,,---,0.00,VWS V14.01,2013-05-01 16:57:00,
2013-05-01 12:06:00,80.8,57.5,30.09,SSW,202,4.0,9.0,45,0.00,,---,0.00,VWS V14.01,2013-05-01 17:06:00,
2013-05-01 12:12:00,81.1,57.2,30.09,SSW,192,5.0,9.0,44,0.00,,---,0.00,VWS V14.01,2013-05-01 17:12:00,
2013-05-01 12:21:00,81.5,56.2,30.09,South,169,5.0,11.0,42,0.00,,---,0.00,VWS V14.01,2013-05-01 17:21:00,
2013-05-01 12:27:00,81.6,57.0,30.09,SSE,165,5.0,12.0,43,0.00,,---,0.00,VWS V14.01,2013-05-01 17:27:00,
2013-05-01 12:36:00,81.9,56.6,30.09,SW,233,5.0,12.0,42,0.00,,---,0.00,VWS V14.01,2013-05-01 17:36:00,
2013-05-01 12:42:00,82.1,55.4,30.09,WSW,252,4.0,12.0,40,0.00,,---,0.00,VWS V14.01,2013-05-01 17:42:00,
2013-05-01 12:51:00,81.2,56.0,30.09,West,273,2.0,9.0,42,0.00,,---,0.00,VWS V14.01,2013-05-01 17:51:00,
2013-05-01 12:57:00,81.6,56.3,30.09,SE,140,10.0,13.0,42,0.00,,---,0.00,VWS V14.01,2013-05-01 17:57:00,
2013-05-01 13:06:00,82.5,55.8,30.08,SW,229,5.0,12.0,40,0.00,,---,0.00,VWS V14.01,2013-05-01 18:06:00,
2013-05-01 13:12:00,82.5,56.5,30.08,South,188,4.0,12.0,41,0.00,,---,0.00,VWS V14.01,2013-05-01 18:12:00,
2013-05-01 13:21:00,82.3,54.9,30.08,SSE,156,5.0,17.0,39,0.00,,---,0.00,VWS V14.01,2013-05-01 18:21:00,
2013-05-01 13:27:00,82.4,55.7,30.08,South,183,9.0,17.0,40,0.00,,---,0.00,VWS V14.01,2013-05-01 18:27:00,
2013-05-01 13:36:00,82.9,55.4,30.08,SE,135,10.0,14.0,39,0.00,,---,0.00,VWS V14.01,2013-05-01 18:36:00,
2013-05-01 13:42:00,83.1,54.9,30.08,SSE,156,7.0,14.0,38,0.00,,---,0.00,VWS V14.01,2013-05-01 18:42:00,
2013-05-01 13:51:00,83.7,56.1,30.08,South,188,4.0,10.0,39,0.00,,---,0.00,VWS V14.01,2013-05-01 18:51:00,
2013-05-01 13:57:00,83.7,54.7,30.08,South,179,10.0,11.0,37,0.00,,---,0.00,VWS V14.01,2013-05-01 18:57:00,
2013-05-01 14:07:00,83.9,54.9,30.08,SE,146,4.0,14.0,37,0.00,,---,0.00,VWS V14.01,2013-05-01 19:07:00,
2013-05-01 14:12:00,83.9,54.1,30.08,South,172,4.0,14.0,36,0.00,,---,0.00,VWS V14.01,2013-05-01 19:12:00,
2013-05-01 14:22:00,83.8,54.0,30.08,SE,146,7.0,14.0,36,0.00,,---,0.00,VWS V14.01,2013-05-01 19:22:00,
2013-05-01 14:27:00,83.8,54.8,30.08,SW,232,0.0,14.0,37,0.00,,---,0.00,VWS V14.01,2013-05-01 19:27:00,
2013-05-01 14:37:00,84.4,54.6,30.08,SSE,167,5.0,12.0,36,0.00,,---,0.00,VWS V14.01,2013-05-01 19:37:00,
2013-05-01 14:42:00,84.7,55.6,30.08,SE,146,6.0,12.0,37,0.00,,---,0.00,VWS V14.01,2013-05-01 19:42:00,
2013-05-01 14:52:00,84.6,55.5,30.08,SSE,153,9.0,15.0,37,0.00,,---,0.00,VWS V14.01,2013-05-01 19:52:00,
2013-05-01 14:57:00,84.7,54.8,30.08,South,185,4.0,15.0,36,0.00,,---,0.00,VWS V14.01,2013-05-01 19:57:00,
2013-05-01 15:07:00,84.7,54.8,30.08,South,178,8.0,17.0,36,0.00,,---,0.00,VWS V14.01,2013-05-01 20:07:00,
2013-05-01 15:12:00,84.3,54.5,30.09,SSW,201,6.0,17.0,36,0.00,,---,0.00,VWS V14.01,2013-05-01 20:12:00,
2013-05-01 15:22:00,85.3,54.6,30.09,South,190,3.0,13.0,35,0.00,,---,0.00,VWS V14.01,2013-05-01 20:22:00,
2013-05-01 15:27:00,85.5,53.1,30.09,SSE,153,9.0,16.0,33,0.00,,---,0.00,VWS V14.01,2013-05-01 20:27:00,
2013-05-01 15:37:00,85.4,53.9,30.09,WSW,241,7.0,13.0,34,0.00,,---,0.00,VWS V14.01,2013-05-01 20:37:00,
2013-05-01 15:42:00,85.4,54.7,30.09,South,190,6.0,15.0,35,0.00,,---,0.00,VWS V14.01,2013-05-01 20:42:00,
2013-05-01 15:52:00,85.4,54.7,30.09,South,174,5.0,12.0,35,0.00,,---,0.00,VWS V14.01,2013-05-01 20:52:00,
2013-05-01 15:57:00,85.4,54.7,30.09,ESE,111,5.0,13.0,35,0.00,,---,0.00,VWS V14.01,2013-05-01 20:57:00,
2013-05-01 16:07:00,84.7,54.8,30.09,SSE,155,9.0,17.0,36,0.00,,---,0.00,VWS V14.01,2013-05-01 21:07:00,
2013-05-01 16:12:00,84.8,54.9,30.08,South,174,10.0,17.0,36,0.00,,---,0.00,VWS V14.01,2013-05-01 21:12:00,
2013-05-01 16:22:00,84.9,55.8,30.09,South,173,6.0,14.0,37,0.00,,---,0.00,VWS V14.01,2013-05-01 21:22:00,
2013-05-01 16:27:00,85.4,54.7,30.08,SSW,200,7.0,14.0,35,0.00,,---,0.00,VWS V14.01,2013-05-01 21:27:00,
2013-05-01 16:37:00,85.3,53.8,30.09,SW,223,5.0,16.0,34,0.00,,---,0.00,VWS V14.01,2013-05-01 21:37:00,
2013-05-01 16:42:00,85.3,55.3,30.08,South,174,6.0,16.0,36,0.00,,---,0.00,VWS V14.01,2013-05-01 21:42:00,
2013-05-01 16:52:00,85.4,53.9,30.08,SSW,202,14.0,16.0,34,0.00,,---,0.00,VWS V14.01,2013-05-01 21:52:00,
2013-05-01 16:57:00,85.2,52.9,30.08,South,174,9.0,18.0,33,0.00,,---,0.00,VWS V14.01,2013-05-01 21:57:00,
2013-05-01 17:07:00,84.8,54.1,30.08,South,179,7.0,19.0,35,0.00,,---,0.00,VWS V14.01,2013-05-01 22:07:00,
2013-05-01 17:12:00,84.5,53.9,30.08,SSW,213,2.0,19.0,35,0.00,,---,0.00,VWS V14.01,2013-05-01 22:12:00,
2013-05-01 17:22:00,84.5,54.6,30.08,SSE,165,4.0,15.0,36,0.00,,---,0.00,VWS V14.01,2013-05-01 22:22:00,
2013-05-01 17:27:00,84.5,54.6,30.08,SSW,209,6.0,15.0,36,0.00,,---,0.00,VWS V14.01,2013-05-01 22:27:00,
2013-05-01 17:37:00,84.1,52.7,30.08,SSE,157,7.0,14.0,34,0.00,,---,0.00,VWS V14.01,2013-05-01 22:37:00,
2013-05-01 17:42:00,83.9,51.8,30.08,South,188,6.0,14.0,33,0.00,,---,0.00,VWS V14.01,2013-05-01 22:42:00,
2013-05-01 17:52:00,83.3,52.0,30.08,SSE,165,5.0,20.0,34,0.00,,---,0.00,VWS V14.01,2013-05-01 22:52:00,
2013-05-01 17:57:00,83.1,51.9,30.08,SW,214,6.0,20.0,34,0.00,,---,0.00,VWS V14.01,2013-05-01 22:57:00,
2013-05-01 18:07:00,82.9,52.5,30.08,SSW,192,2.0,17.0,35,0.00,,---,0.00,VWS V14.01,2013-05-01 23:07:00,
2013-05-01 18:12:00,82.9,52.5,30.08,South,191,8.0,17.0,35,0.00,,---,0.00,VWS V14.01,2013-05-01 23:12:00,
2013-05-01 18:22:00,82.5,52.1,30.08,SSE,163,7.0,14.0,35,0.00,,---,0.00,VWS V14.01,2013-05-01 23:22:00,
2013-05-01 18:27:00,82.2,51.8,30.08,South,177,10.0,14.0,35,0.00,,---,0.00,VWS V14.01,2013-05-01 23:27:00,
2013-05-01 18:37:00,81.7,52.2,30.08,SSE,150,4.0,13.0,36,0.00,,---,0.00,VWS V14.01,2013-05-01 23:37:00,
2013-05-01 18:42:00,81.4,53.4,30.08,SSW,195,4.0,13.0,38,0.00,,---,0.00,VWS V14.01,2013-05-01 23:42:00,
2013-05-01 18:52:00,80.7,52.8,30.08,SSE,155,7.0,14.0,38,0.00,,---,0.00,VWS V14.01,2013-05-01 23:52:00,
2013-05-01 19:00:00,80.2,53.0,30.08,SSE,163,4.0,11.0,39,0.00,,---,0.00,VWS V14.01,2013-05-02 00:00:00,
2013-05-01 19:07:00,79.8,53.4,30.08,SSE,159,5.0,12.0,40,0.00,,---,0.00,VWS V14.01,2013-05-02 00:07:00,
2013-05-01 19:15:00,79.6,53.8,30.08,SSE,161,8.0,10.0,41,0.00,,---,0.00,VWS V14.01,2013-05-02 00:15:00,
2013-05-01 19:22:00,79.4,53.7,30.09,South,172,6.0,11.0,41,0.00,,---,0.00,VWS V14.01,2013-05-02 00:22:00,
2013-05-01 19:30:00,79.1,54.1,30.09,South,175,6.0,8.0,42,0.00,,---,0.00,VWS V14.01,2013-05-02 00:30:00,
2013-05-01 19:37:00,78.7,53.7,30.09,SE,139,5.0,10.0,42,0.00,,---,0.00,VWS V14.01,2013-05-02 00:37:00,
2013-05-01 19:45:00,78.3,54.0,30.09,SSE,162,4.0,9.0,43,0.00,,---,0.00,VWS V14.01,2013-05-02 00:45:00,
2013-05-01 19:52:00,77.9,54.3,30.09,SSE,161,0.0,9.0,44,0.00,,---,0.00,VWS V14.01,2013-05-02 00:52:00,
2013-05-01 20:00:00,77.4,53.8,30.09,SSE,163,8.0,8.0,44,0.00,,---,0.00,VWS V14.01,2013-05-02 01:00:00,
2013-05-01 20:07:00,77.0,54.1,30.10,SSE,161,5.0,8.0,45,0.00,,---,0.00,VWS V14.01,2013-05-02 01:07:00,
2013-05-01 20:15:00,76.7,54.4,30.10,SSE,163,6.0,7.0,46,0.00,,---,0.00,VWS V14.01,2013-05-02 01:15:00,
2013-05-01 20:22:00,76.4,54.7,30.10,South,175,4.0,8.0,47,0.00,,---,0.00,VWS V14.01,2013-05-02 01:22:00,
2013-05-01 20:30:00,76.0,54.3,30.10,SSE,153,4.0,5.0,47,0.00,,---,0.00,VWS V14.01,2013-05-02 01:30:00,
2013-05-01 20:37:00,75.7,54.6,30.10,SSE,167,1.0,7.0,48,0.00,,---,0.00,VWS V14.01,2013-05-02 01:37:00,
2013-05-01 20:45:00,75.4,54.9,30.11,ESE,117,0.0,4.0,49,0.00,,---,0.00,VWS V14.01,2013-05-02 01:45:00,
2013-05-01 20:52:00,75.1,55.2,30.11,SSE,148,2.0,5.0,50,0.00,,---,0.00,VWS V14.01,2013-05-02 01:52:00,
2013-05-01 21:00:00,74.8,55.5,30.11,SSE,155,1.0,5.0,51,0.00,,---,0.00,VWS V14.01,2013-05-02 02:00:00,
2013-05-01 21:07:00,74.5,55.2,30.11,SSE,164,1.0,5.0,51,0.00,,---,0.00,VWS V14.01,2013-05-02 02:07:00,
2013-05-01 21:15:00,74.2,55.5,30.11,SE,138,1.0,4.0,52,0.00,,---,0.00,VWS V14.01,2013-05-02 02:15:00,
2013-05-01 21:22:00,73.9,55.7,30.12,SSE,159,4.0,6.0,53,0.00,,---,0.00,VWS V14.01,2013-05-02 02:22:00,
2013-05-01 21:30:00,73.7,56.0,30.11,SE,146,2.0,6.0,54,0.00,,---,0.00,VWS V14.01,2013-05-02 02:30:00,
2013-05-01 21:37:00,73.4,55.8,30.12,SSE,163,0.0,6.0,54,0.00,,---,0.00,VWS V14.01,2013-05-02 02:37:00,
2013-05-01 21:45:00,73.1,56.0,30.12,SSE,165,0.0,7.0,55,0.00,,---,0.00,VWS V14.01,2013-05-02 02:45:00,
2013-05-01 21:52:00,72.9,56.3,30.12,SE,132,0.0,7.0,56,0.00,,---,0.00,VWS V14.01,2013-05-02 02:52:00,
2013-05-01 22:00:00,72.7,56.6,30.12,SE,136,5.0,7.0,57,0.00,,---,0.00,VWS V14.01,2013-05-02 03:00:00,
2013-05-01 22:07:00,72.6,56.5,30.12,SE,129,0.0,7.0,57,0.00,,---,0.00,VWS V14.01,2013-05-02 03:07:00,
2013-05-01 22:15:00,72.4,56.8,30.12,SSE,155,4.0,5.0,58,0.00,,---,0.00,VWS V14.01,2013-05-02 03:15:00,
2013-05-01 22:23:00,72.2,56.6,30.12,SE,137,0.0,5.0,58,0.00,,---,0.00,VWS V14.01,2013-05-02 03:23:00,
2013-05-01 22:30:00,72.0,56.9,30.12,SSE,162,1.0,2.0,59,0.00,,---,0.00,VWS V14.01,2013-05-02 03:30:00,
2013-05-01 22:38:00,71.7,57.1,30.12,SSE,148,0.0,4.0,60,0.00,,---,0.00,VWS V14.01,2013-05-02 03:38:00,
2013-05-01 22:45:00,71.6,57.0,30.11,South,180,3.0,4.0,60,0.00,,---,0.00,VWS V14.01,2013-05-02 03:45:00,
2013-05-01 22:53:00,71.4,56.8,30.11,SSE,148,2.0,7.0,60,0.00,,---,0.00,VWS V14.01,2013-05-02 03:53:00,
2013-05-01 23:00:00,71.3,57.2,30.12,SSE,150,1.0,4.0,61,0.00,,---,0.00,VWS V14.01,2013-05-02 04:00:00,
2013-05-01 23:08:00,71.2,57.1,30.11,ESE,109,5.0,7.0,61,0.00,,---,0.00,VWS V14.01,2013-05-02 04:08:00,
2013-05-01 23:12:00,71.2,57.1,30.11,SE,138,0.0,7.0,61,0.00,,---,0.00,VWS V14.01,2013-05-02 04:12:00,
2013-05-01 23:15:00,71.2,57.1,30.11,SE,144,1.0,2.0,61,0.00,,---,0.00,VWS V14.01,2013-05-02 04:15:00,
2013-05-01 23:23:00,71.0,56.9,30.12,SSE,154,0.0,5.0,61,0.00,,---,0.00,VWS V14.01,2013-05-02 04:23:00,
2013-05-01 23:30:00,70.8,57.2,30.12,SE,146,0.0,2.0,62,0.00,,---,0.00,VWS V14.01,2013-05-02 04:30:00,
2013-05-01 23:38:00,70.6,57.0,30.12,SE,145,0.0,4.0,62,0.00,,---,0.00,VWS V14.01,2013-05-02 04:38:00,
2013-05-01 23:45:00,70.5,57.3,30.12,South,169,0.0,4.0,63,0.00,,---,0.00,VWS V14.01,2013-05-02 04:45:00,
2013-05-01 23:53:00,70.3,57.1,30.12,SE,146,0.0,4.0,63,0.00,,---,0.00,VWS V14.01,2013-05-02 04:53:00,